Location: Bakov nad Jizerou
(50.4784°N, 14.9394°E)
Time: 21:42:47
(UTC+00:00)

BREEZE-M DEB (TANK) - Pass Details

Date: 16 June 2021
Orbit: 320 x 12038 km, 49.6° (Epoch: 23 July)

Event Time Altitude Azimuth Distance (km) Brightness Sun altitude
Rises 21:34:13 0° 239° (WSW) 2,159 5.1 -13.7°
Reaches altitude 10° 21:35:39 10° 234° (SW) 1,476 4.2 -13.8°
Maximum altitude 21:38:26 55° 154° (SSE) 727 2.3 -13.9°
Drops below altitude 10° 21:45:10 10° 78° (ENE) 3,521 6.1 -14.3°
Sets 21:50:34 0° 76° (ENE) 5,881 7.3 -14.5°
